Location: Banksville Park
(38.5557°N, 75.1182°W)
Time: 13:42:43
(UTC+00:00)

CZ-2C R/B - Pass Details

Date: 19 September 2020
Orbit: 391 x 588 km, 35.0° (Epoch: 26 October)

Event Time Altitude Azimuth Distance (km) Brightness Sun altitude
Rises 01:18:10 0° 264° (W) 2,418 5.5 -26.4°
Reaches altitude 10° 01:20:26 10° 258° (WSW) 1,516 4.2 -26.8°
Enters shadow 01:21:24 17° 252° (WSW) 1,152 3.4 -27.0°
